{"data":{"norad_id":65464,"intl_designator":"2025-195G","name":"STARLINK-35107","alt_names":[],"object_type":"PAYLOAD","status":"ACTIVE","operator":null,"country":"US","launch_date":"2025-09-03","launch_site_code":"AFETR","launch_vehicle":null,"mission":null,"orbit_class":"UNKNOWN","rcs_meters":null,"size_class":null,"mass_kg":null,"dimensions":null,"purposes":["comms"],"wikipedia_slug":null,"has_3d_model":false,"image_url":null,"decayed_at":null,"tle_current":{"epoch":"2026-05-25T01:10:19.642944Z","epoch_age_seconds":78098,"freshness":"FRESH","line1":"1 65464U 25195G   26145.04883846  .00030208  00000+0  98072-3 0  9997","line2":"2 65464  53.1591 262.8606 0001167 100.4471 259.6662 15.31717656 41691","mean_motion":15.31717656,"eccentricity":0.0001167,"inclination_deg":53.1591,"raan_deg":262.8606,"arg_perigee_deg":100.4471,"mean_anomaly_deg":259.6662,"bstar":0.00098072,"rev_number":4169,"period_min":94.012104277787,"perigee_km":469.88810631067,"apogee_km":471.48662191725,"semimajor_km":6848.824364114,"source":"CELESTRAK","updated_at":"2026-05-25T13:38:20.812826Z"}}}